Location: Boca do Mato
(22.9085°S, 43.2930°W)
Time: 06:24:59
(UTC+00:00)

Cosmos 1953 - Visible Passes

Search period start: 20 October 2020 00:00
Search period end: 30 October 2020 00:00
Orbit: 538 x 558 km, 82.5° (Epoch: 18 October)

Date Brightness Start Highest point End Pass type
(mag) Time Alt. Az. Time Alt. Az. Time Alt. Az.
20 Oct 4.4 07:51:20 10° NNE 07:55:00 34° E 07:58:43 10° SSE visible
21 Oct 4.1 07:46:23 10° NNE 07:50:08 37° E 07:53:56 10° SSE visible
22 Oct 3.9 07:41:26 10° NNE 07:45:15 41° E 07:49:08 10° SSE visible
23 Oct 3.6 07:36:30 10° NNE 07:40:23 45° E 07:44:20 10° SSE visible
24 Oct 3.4 07:31:35 10° NNE 07:35:31 50° E 07:39:31 10° SSE visible
25 Oct 3.1 07:26:41 10° N 07:30:39 56° E 07:34:42 10° SSE visible
26 Oct 2.9 07:21:47 10° N 07:25:47 62° E 07:29:51 10° SSE visible
27 Oct 2.7 07:16:54 10° N 07:20:56 69° E 07:25:01 10° S visible
28 Oct 2.5 07:12:01 10° N 07:16:04 77° E 07:20:10 10° S visible
29 Oct 2.4 07:07:08 10° N 07:11:12 85° E 07:15:19 10° S visible
